This demonstration page uses our WeatherBlox Daily Observations layout. Learn more.

Left ArrowRight Arrow

34.16533, -84.80231

Hourly Observations for March 28, 2020

Temp ( °F °C ) Dew Point ( °F °C ) Humidity (%) Winds ( mph kmh ) Pressure ( in mb ) Visibility ( mi km ) Precip ( " mm )
12:53 am 00:53 Clear 65 18.3 59 15 81 81 Calm 29.94 1014 10 16 0.00 0.00
1:53 am 01:53 Clear 63 17.2 59 15 87 87 Calm 29.93 1014 10 16 0.00 0.00
2:53 am 02:53 Clear 63 17.2 59 15 87 87 Calm 29.92 1013 9 14 0.00 0.00
3:53 am 03:53 Clear 69 20.6 62 16.7 78 78 SSW 5 7 29.92 1013 10 16 0.00 0.00
4:53 am 04:53 Clear 63 17.2 60 15.6 90 90 Calm 29.91 1013 7 11 0.00 0.00
5:53 am 05:53 Clear with Mist and Fog 61 16.1 58 14.4 90 90 Calm 29.91 1013 5 8 0.00 0.00
6:53 am 06:53 Mostly Clear with Mist and Fog 59 15 57 13.9 93 93 Calm 29.93 1014 3 5 0.00 0.00
7:05 am 07:05 Mostly Cloudy with Mist and Fog 60 15.6 58 14.4 93 93 Calm 29.96 1015 4 6 0.00 0.00
7:53 am 07:53 Cloudy with Mist and Fog 62 16.7 60 15.6 93 93 SE 3 6 29.96 1014 5 8 0.00 0.00
8:53 am 08:53 Cloudy 66 18.9 62 16.7 87 87 Calm 29.98 1015 8 13 0.00 0.00
9:53 am 09:53 Cloudy 70 21.1 62 16.7 76 76 Calm 29.98 1015 10 16 0.00 0.00
10:53 am 10:53 Cloudy 74 23.3 63 17.2 69 69 VRB 3 6 29.98 1015 10 16 0.00 0.00
11:03 am 11:03 Cloudy 75 23.9 63 17.2 66 66 VRB 3 6 29.98 1015 10 16 0.00 0.00
11:53 am 11:53 Mostly Cloudy 75 23.9 62 16.7 64 64 VRB 6 9 29.98 1015 10 16 0.00 0.00
12:53 pm 12:53 Mostly Sunny 79 26.1 61 16.1 54 54 VRB 7 11 29.96 1015 10 16 0.00 0.00
1:53 pm 13:53 Mostly Cloudy 79 26.1 62 16.7 56 56 VRB 6 9 29.95 1014 10 16 0.00 0.00
2:53 pm 14:53 Sunny 83 28.3 62 16.7 49 49 Calm 29.92 1013 10 16 0.00 0.00
3:53 pm 15:53 Sunny 85 29.4 60 15.6 43 43 VRB 7 11 29.89 1012 10 16 0.00 0.00
4:53 pm 16:53 Sunny 85 29.4 61 16.1 45 45 VRB 3 6 29.89 1012 10 16 0.00 0.00
5:53 pm 17:53 Partly Cloudy 84 28.9 62 16.7 48 48 VRB 3 6 29.89 1012 10 16 0.00 0.00
6:53 pm 18:53 Partly Cloudy 83 28.3 61 16.1 48 48 S 8 13 29.89 1012 10 16 0.00 0.00
7:53 pm 19:53 Sunny 80 26.7 61 16.1 52 52 S 6 9 29.89 1012 10 16 0.00 0.00
8:53 pm 20:53 Clear 78 25.6 61 16.1 56 56 S 7 11 29.90 1013 10 16 0.00 0.00
9:53 pm 21:53 Clear 74 23.3 61 16.1 64 64 S 6 9 29.91 1013 10 16 0.00 0.00
10:53 pm 22:53 Clear 71 21.7 61 16.1 71 71 S 5 7 29.93 1014 10 16 0.00 0.00
11:53 pm 23:53 Clear 67 19.4 61 16.1 81 81 Calm 29.94 1014 10 16 0.00 0.00

Powered by AerisWeather